ISS (ZARYA) 1 25544U 98067A 10068.89511347 .00012964 00000-0 94119-4 0 7384 2 25544 51.6482 20.3579 0007750 32.8019 66.4622 15.73767716647830 SOYUZ-TMA 16 1 35940U 09053A 10067.49887853 .00013262 00000-0 96322-4 0 1165 2 35940 51.6482 27.5237 0007777 27.2866 76.2859 15.73730784 25115 PROGRESS-M 03M 1 35948U 09056A 10067.49887853 .00013262 00000-0 96322-4 0 1537 2 35948 51.6482 27.5237 0007777 27.2866 76.2859 15.73730784 22794 SOYUZ-TMA 17 1 36129U 09074A 10067.49887853 .00013262 00000-0 96322-4 0 639 2 36129 51.6482 27.5237 0007777 27.2866 76.2859 15.73730784 12245 PROGRESS-M 04M 1 36361U 10003A 10067.49887853 .00013262 00000-0 96322-4 0 338 2 36361 51.6482 27.5237 0007777 27.2866 76.2859 15.73730784 5267